Weather reports worldwide

Advertisment
Blencathra, United Kingdom (99143): temperature & dewpoint: 12.07.2018 19:00:00 - 18.07.2018 19:00:00 (BST)Blencathra, United Kingdom (99143): precipitation: 12.07.2018 19:00:00 - 18.07.2018 19:00:00 (BST)
Date & Time tt [°C] td [°C] rr [mm]
18.07.2018 19:00:00 - - -
18.07.2018 18:00:00 18,5 11,5 0,0
18.07.2018 17:00:00 18,4 11,9 0,0
18.07.2018 16:00:00 18,2 11,8 0,0
18.07.2018 15:00:00 18,3 10,6 0,0
18.07.2018 14:00:00 19,1 11,5 0,0
18.07.2018 13:00:00 18,3 11,3 0,0
18.07.2018 12:00:00 17,7 11,1 0,0
18.07.2018 11:00:00 19,2 13,1 0,0
18.07.2018 10:00:00 15,6 10,6 0,0
18.07.2018 09:00:00 15,0 10,5 0,0
18.07.2018 08:00:00 13,5 10,8 0,0
18.07.2018 07:00:00 12,5 10,0 0,0
18.07.2018 06:00:00 11,6 9,2 0,0
18.07.2018 05:00:00 11,4 8,8 0,0
18.07.2018 04:00:00 11,1 7,9 0,0
18.07.2018 03:00:00 11,1 7,4 0,0
18.07.2018 02:00:00 11,6 7,4 0,0
18.07.2018 01:00:00 10,7 6,8 0,0
18.07.2018 00:00:00 11,5 7,7 0,0
17.07.2018 23:00:00 11,0 7,1 0,0
17.07.2018 22:00:00 11,9 7,6 0,0
17.07.2018 21:00:00 12,7 8,9 0,0
17.07.2018 20:00:00 13,7 8,9 0,0
17.07.2018 19:00:00 14,7 9,0 0,0
17.07.2018 18:00:00 15,0 9,9 0,0
17.07.2018 17:00:00 16,6 9,0 0,0
17.07.2018 16:00:00 16,0 9,7 0,0
17.07.2018 15:00:00 16,5 10,2 0,0
17.07.2018 14:00:00 16,0 10,6 0,0
17.07.2018 13:00:00 14,4 11,2 0,0
17.07.2018 12:00:00 14,2 10,9 0,0
17.07.2018 11:00:00 14,1 11,2 0,0
17.07.2018 10:00:00 13,8 11,2 0,0
17.07.2018 09:00:00 14,6 12,3 0,0
17.07.2018 08:00:00 13,1 11,6 0,0
17.07.2018 07:00:00 12,2 10,7 0,0
17.07.2018 06:00:00 12,4 10,3 0,0
17.07.2018 05:00:00 12,0 10,5 0,0
17.07.2018 04:00:00 10,8 10,1 0,0
17.07.2018 03:00:00 10,5 10,2 0,0
17.07.2018 02:00:00 10,8 10,4 0,0
17.07.2018 01:00:00 11,3 10,9 0,0
17.07.2018 00:00:00 12,1 11,6 0,0
16.07.2018 23:00:00 12,1 11,1 0,0
16.07.2018 22:00:00 12,3 11,4 0,0
16.07.2018 21:00:00 12,5 12,2 0,2
16.07.2018 20:00:00 12,5 12,0 1,2
16.07.2018 19:00:00 12,5 11,8 2,6
16.07.2018 18:00:00 13,5 10,9 0,4
16.07.2018 17:00:00 15,0 11,2 0,0
16.07.2018 16:00:00 16,9 11,4 0,0
16.07.2018 15:00:00 18,4 12,9 0,0
16.07.2018 14:00:00 17,5 12,6 0,0
16.07.2018 13:00:00 15,7 12,3 0,0
16.07.2018 12:00:00 14,6 13,0 0,4
16.07.2018 11:00:00 14,8 12,3 0,0
16.07.2018 10:00:00 14,6 12,4 0,0
16.07.2018 09:00:00 15,1 14,7 0,4
16.07.2018 08:00:00 15,2 15,1 0,2
16.07.2018 07:00:00 15,3 14,9 0,2
16.07.2018 06:00:00 15,3 14,6 0,0
16.07.2018 05:00:00 15,1 14,8 0,4
16.07.2018 04:00:00 15,2 14,8 0,6
16.07.2018 03:00:00 15,4 14,2 0,0
16.07.2018 02:00:00 15,8 13,7 0,0
16.07.2018 01:00:00 15,6 13,8 0,0
16.07.2018 00:00:00 15,5 13,9 0,0
15.07.2018 23:00:00 16,4 13,2 0,0
15.07.2018 22:00:00 17,0 13,1 0,0
15.07.2018 21:00:00 17,2 12,7 0,0
15.07.2018 20:00:00 17,6 12,2 0,0
15.07.2018 19:00:00 18,4 12,1 0,0
15.07.2018 18:00:00 19,0 12,6 0,0
15.07.2018 17:00:00 20,4 12,3 0,0
15.07.2018 16:00:00 20,3 14,6 0,0
15.07.2018 15:00:00 19,6 13,6 0,0
15.07.2018 14:00:00 18,7 13,2 0,0
15.07.2018 13:00:00 19,9 13,5 0,0
15.07.2018 12:00:00 18,7 13,0 0,0
15.07.2018 11:00:00 18,7 12,8 0,0
15.07.2018 10:00:00 18,1 12,1 0,0
15.07.2018 09:00:00 18,0 13,0 0,0
15.07.2018 08:00:00 16,8 13,2 0,0
15.07.2018 07:00:00 15,5 12,1 0,0
15.07.2018 06:00:00 15,1 12,5 0,0
15.07.2018 05:00:00 15,5 12,9 0,0
15.07.2018 04:00:00 15,2 13,1 0,0
15.07.2018 03:00:00 15,0 12,9 0,0
15.07.2018 02:00:00 14,2 11,6 0,0
15.07.2018 01:00:00 14,9 10,5 0,0
15.07.2018 00:00:00 15,1 10,3 0,0
14.07.2018 23:00:00 15,4 10,7 0,0
14.07.2018 22:00:00 16,3 11,7 0,0
14.07.2018 21:00:00 17,7 11,2 0,0
14.07.2018 20:00:00 19,3 11,1 0,0
14.07.2018 19:00:00 20,4 11,6 0,0
14.07.2018 18:00:00 20,7 11,9 0,0
14.07.2018 17:00:00 20,9 11,8 0,0
14.07.2018 16:00:00 21,7 12,8 0,0
14.07.2018 15:00:00 19,8 12,6 0,0
14.07.2018 14:00:00 20,3 12,9 0,0
14.07.2018 13:00:00 20,7 13,2 0,0
14.07.2018 12:00:00 19,9 12,8 0,0
14.07.2018 11:00:00 19,0 11,4 0,0
14.07.2018 10:00:00 18,5 11,7 0,0
14.07.2018 09:00:00 16,7 11,4 0,0
14.07.2018 08:00:00 14,8 11,2 0,0
14.07.2018 07:00:00 12,2 10,9 0,0
14.07.2018 06:00:00 11,3 10,3 0,0
14.07.2018 05:00:00 11,6 10,5 0,0
14.07.2018 04:00:00 12,4 11,4 0,0
14.07.2018 03:00:00 13,0 11,8 0,0
14.07.2018 02:00:00 13,9 12,3 0,0
14.07.2018 01:00:00 14,0 12,2 0,0
14.07.2018 00:00:00 15,0 13,0 0,0
13.07.2018 23:00:00 15,3 12,7 0,0
13.07.2018 22:00:00 16,3 13,4 0,0
13.07.2018 21:00:00 16,9 13,7 0,0
13.07.2018 20:00:00 17,4 13,8 0,0
13.07.2018 19:00:00 18,5 13,7 0,0
13.07.2018 18:00:00 18,2 14,3 0,0
13.07.2018 17:00:00 18,3 14,2 0,0
13.07.2018 16:00:00 16,6 14,5 0,0
13.07.2018 15:00:00 16,4 14,6 0,0
13.07.2018 14:00:00 15,7 14,2 0,2
13.07.2018 13:00:00 15,6 13,7 0,0
13.07.2018 12:00:00 15,4 13,8 0,0
13.07.2018 11:00:00 16,0 13,2 0,0
13.07.2018 10:00:00 16,8 13,3 0,0
13.07.2018 09:00:00 15,8 13,0 0,0
13.07.2018 08:00:00 15,7 12,9 0,0
13.07.2018 07:00:00 15,4 12,3 0,0
13.07.2018 06:00:00 15,3 12,2 0,0
13.07.2018 05:00:00 15,4 12,2 0,0
13.07.2018 04:00:00 15,7 12,4 0,0
13.07.2018 03:00:00 16,0 13,4 0,0
13.07.2018 02:00:00 15,3 13,2 0,0
13.07.2018 01:00:00 15,0 13,2 0,0
13.07.2018 00:00:00 15,6 13,3 0,0
12.07.2018 23:00:00 15,7 13,3 0,0
12.07.2018 22:00:00 16,2 13,4 0,0
12.07.2018 21:00:00 17,2 13,3 0,0
12.07.2018 20:00:00 18,9 13,1 0,0
12.07.2018 19:00:00 19,5 13,9 0,0

tt = temperature
td = dewpoint
rr = precipitation

Next stations